Theta_e
345 344 344 343 345 348 348 349 349 347 349 352 349 347 347 350 348 348 347 348 351 350 351 345 351 348 350 351 348 351 350 349 350 349 351 350 348 347 347 342 343 342 345
344 344 343 342 342 345 344 342 346 348 348 351 352 351 348 349 348 350 351 351 352 352 352 350 352 351 350 352 352 352 350 351 350 353 352 351 350 351 350 347 348 347 347
342 344 345 343 342 342 343 343 346 351 350 352 352 350 350 350 351 351 352 352 353 352 353 351 351 352 352 352 352 352 352 353 353 352 352 353 352 352 352 351 348 351 351
346 346 346 344 342 342 342 344 348 352 351 352 352 351 350 350 352 350 352 352 352 353 353 353 350 345 353 353 352 348 350 352 353 353 352 352 351 353 351 352 352 352 351
349 349 350 347 347 351 350 348 345 348 350 349 350 349 349 348 346 348 348 348 352 353 353 352 348 351 349 347 350 351 351 351 351 352 351 351 352 351 350 350 350 348 347
350 351 351 353 352 352 351 350 349 345 345 343 349 347 347 349 347 347 347 349 350 352 351 350 351 349 348 349 350 350 349 352 354 352 351 351 352 349 344 344 342 338 336
345 347 348 348 349 348 344 344 343 345 346 346 346 343 337 343 346 342 343 346 349 348 345 346 352 349 350 353 350 351 351 350 352 354 353 352 346 343 342 339 338 337 336
339 339 341 344 347 346 342 339 338 340 342 344 345 343 340 340 342 340 339 346 346 346 345 346 346 348 349 350 354 354 353 353 350 349 349 343 339 338 336 335 335 334 335
338 337 337 339 341 344 344 344 342 340 339 339 341 341 342 344 344 343 339 343 346 345 346 345 347 348 347 348 353 354 354 351 345 347 338 332 329 329 331 334 335 336 337
335 336 334 332 336 337 341 345 343 342 340 336 332 331 332 334 336 338 338 343 345 345 347 348 347 347 346 348 351 354 353 351 344 336 332 330 330 334 332 334 336 336 336
336 332 330 330 330 330 335 339 343 342 340 339 339 336 331 334 333 330 333 343 346 346 349 348 347 345 346 347 349 350 351 350 342 334 333 333 333 333 334 335 336 335 335
334 336 335 332 333 334 334 337 337 341 342 343 342 338 336 335 332 332 332 334 347 349 347 345 345 343 345 347 348 349 349 346 334 332 332 332 333 334 335 335 337 337 336
334 336 336 336 336 333 335 337 336 337 339 338 338 340 339 336 334 331 331 334 338 344 347 344 342 342 344 347 348 347 339 333 332 331 332 333 334 334 335 337 337 337 337
334 336 336 335 334 334 331 331 331 333 333 335 335 336 339 339 335 333 331 332 333 336 342 342 335 338 345 344 337 331 333 332 331 332 333 333 334 334 336 335 337 337 337
330 331 331 331 330 329 330 329 329 330 331 333 334 334 336 337 338 333 331 333 332 332 336 339 337 333 333 332 333 333 332 330 330 332 333 333 334 335 335 334 335 337 336
330 330 330 329 328 328 329 328 328 328 328 330 331 332 332 336 336 333 332 332 334 336 335 333 331 333 333 334 334 333 331 330 331 332 333 333 334 333 332 332 334 334 334
328 329 330 328 328 327 328 329 329 330 331 332 333 333 330 331 334 336 334 337 334 333 335 334 334 335 336 335 335 333 331 330 332 332 332 332 330 328 328 329 330 331 331
326 326 326 327 327 327 328 329 331 332 332 332 333 332 330 330 331 333 332 331 333 330 333 335 337 337 337 335 332 331 331 331 331 332 332 329 329 328 328 327 327 327 327
325 326 327 328 327 328 329 329 330 331 331 331 331 331 331 330 331 331 327 330 334 332 333 334 335 335 335 333 331 330 329 330 331 331 330 330 330 330 330 329 327 326 327
325 325 326 327 328 329 329 330 330 330 330 330 331 330 330 328 325 325 326 327 334 336 336 335 335 335 334 333 332 330 329 330 330 330 330 330 330 330 329 330 330 330 330
324 325 325 326 328 329 329 330 330 330 330 330 331 331 331 330 331 330 324 327 330 335 336 335 334 334 334 333 331 331 328 329 329 328 328 330 330 330 331 331 331 331 331
323 324 325 326 326 327 329 330 330 331 331 331 331 332 331 330 331 332 332 330 328 331 336 336 334 332 331 331 332 331 327 327 326 326 329 330 330 331 330 330 330 331 331
321 320 321 322 324 326 327 328 329 331 331 331 330 331 332 328 330 332 334 334 333 333 336 337 337 336 332 331 332 332 329 327 326 326 330 331 331 331 330 330 331 331 330
319 318 319 320 320 323 327 329 330 330 330 331 332 331 332 333 331 332 333 334 334 333 332 333 335 335 334 332 331 331 331 327 325 325 330 330 329 330 330 330 331 330 330
316 318 319 320 320 321 323 327 327 328 330 332 332 332 333 333 334 333 333 334 334 334 333 332 332 333 334 333 330 328 326 329 328 328 330 330 329 329 329 330 330 330 329
316 317 317 319 321 322 323 324 326 327 330 331 332 332 332 333 334 335 333 334 333 333 332 330 329 330 333 334 333 331 327 325 330 328 328 329 330 330 330 330 330 329 328
Wind_Speed
11 15 19 20 12 8 8 7 8 11 12 14 17 17 18 17 19 20 21 21 18 17 15 16 15 14 10 11 13 10 12 12 10 9 7 7 9 6 6 9 8 8 10
11 13 16 15 11 12 13 12 10 14 15 15 17 17 19 20 20 19 19 17 17 17 17 14 16 12 14 11 10 13 13 12 11 10 9 7 6 6 7 7 8 9 10
6 8 11 11 11 13 12 12 13 13 13 13 16 18 18 17 16 18 19 19 18 18 17 15 17 15 14 12 12 12 13 12 12 12 11 7 7 5 5 6 6 7 9
5 4 5 7 8 12 13 11 13 9 11 12 17 19 19 20 17 19 17 17 18 16 16 16 17 19 18 15 15 16 13 12 11 11 12 11 9 7 7 8 9 7 9
3 2 2 3 3 6 4 4 5 8 9 15 15 15 16 18 20 22 21 21 18 17 17 17 21 20 21 17 13 12 12 13 12 11 11 10 11 10 10 8 11 12 13
13 11 8 5 6 5 3 6 6 5 3 12 5 7 6 13 20 23 22 20 19 19 19 20 21 22 22 19 18 16 14 12 12 11 11 11 12 11 9 9 9 10 8
14 12 11 11 8 7 9 9 10 13 13 12 13 14 4 9 11 13 12 17 19 24 26 26 19 20 22 17 19 18 17 16 14 12 13 12 11 10 8 9 10 11 14
10 9 9 8 7 5 4 4 7 9 11 15 16 18 17 20 19 21 19 16 20 24 31 29 30 26 23 21 17 16 15 14 15 14 12 11 10 10 9 9 8 10 13
5 5 6 5 5 4 2 3 5 10 15 16 15 16 21 26 27 25 22 24 20 28 33 36 33 29 26 25 19 17 15 14 15 17 16 16 13 12 9 7 8 8 8
1 1 2 3 2 3 5 5 7 9 12 14 15 15 21 20 23 27 34 34 29 30 32 32 32 29 27 28 23 19 17 16 13 9 9 10 10 9 9 9 8 8 7
5 5 4 4 6 5 6 6 8 11 14 18 22 27 28 20 20 20 24 24 25 30 27 28 28 26 22 25 25 23 21 13 14 10 8 7 7 7 7 8 9 9 9
7 8 8 9 9 9 10 11 10 11 16 21 24 25 20 7 10 12 17 21 18 20 24 27 27 24 20 23 24 27 22 17 9 8 8 7 6 4 5 7 8 9 12
10 10 10 11 12 14 14 15 17 14 15 21 22 20 24 17 13 16 17 11 17 20 20 18 23 24 25 29 25 22 18 11 8 8 9 7 5 4 3 4 4 4 6
14 13 12 11 12 14 16 19 21 22 22 22 23 21 21 19 15 9 14 9 17 20 26 19 23 23 23 20 22 18 13 10 9 8 7 6 5 4 3 2 1 2 3
18 19 18 16 17 19 21 24 26 28 28 27 24 20 19 18 17 14 18 13 12 18 12 21 17 20 19 20 16 14 12 10 10 9 8 7 6 5 5 4 2 3 2
19 18 18 18 21 22 23 26 29 34 35 35 37 30 25 20 22 20 18 20 19 12 15 18 19 20 20 21 20 17 14 15 13 11 10 8 7 6 6 5 5 4 3
22 22 20 20 21 22 22 22 24 28 27 28 27 23 21 20 21 24 23 17 17 13 14 18 22 24 25 24 21 18 17 16 14 13 11 9 8 6 5 7 7 6 6
23 25 24 22 21 21 21 22 22 23 24 23 19 17 20 20 18 19 18 16 16 21 15 16 17 21 22 23 24 20 16 15 15 15 13 13 11 9 7 7 8 8 8
21 21 21 20 20 21 21 22 23 23 24 25 23 18 17 18 16 13 15 19 16 18 18 19 19 21 22 24 25 25 19 18 18 18 17 15 13 11 9 8 7 7 7
20 20 20 19 20 19 19 20 22 23 24 23 22 21 12 12 10 13 21 24 19 20 18 18 21 21 23 23 23 25 23 20 19 19 16 13 12 11 10 9 8 7 6
21 21 21 22 21 19 20 21 21 21 22 22 22 20 18 17 15 15 16 25 27 22 21 20 21 21 22 25 24 24 24 23 28 25 20 17 15 13 12 10 8 8 6
19 20 19 19 19 20 20 19 22 21 21 22 21 19 17 21 19 18 18 18 19 22 23 21 22 23 23 26 29 28 25 24 29 26 19 17 16 15 14 12 11 9 7
20 20 20 20 20 21 21 21 21 22 22 21 20 19 15 14 15 17 18 16 16 18 20 21 22 22 23 24 26 28 28 29 32 30 21 18 17 15 14 12 10 8 7
21 22 22 22 21 21 21 21 22 22 22 21 20 19 18 14 14 15 17 15 15 16 17 20 23 25 21 23 25 26 28 30 33 29 25 20 19 16 13 11 9 8 6
22 22 22 22 21 19 20 19 19 20 19 19 19 19 20 18 15 14 15 17 17 17 15 16 18 22 29 27 27 27 31 33 27 25 23 21 19 17 15 12 9 7 6
21 21 23 23 22 20 18 19 18 17 18 18 17 17 18 17 14 13 14 17 17 16 14 16 19 22 23 29 26 26 29 31 31 26 20 19 18 16 13 10 9 8 8
Wind_Direction
184 203 212 235 247 242 247 261 268 279 279 254 247 242 241 237 240 231 237 247 247 250 256 264 262 264 249 253 247 230 229 230 246 270 280 292 299 286 256 255 263 249 254
209 212 221 234 242 229 244 275 283 287 276 257 242 237 238 236 237 229 223 236 239 246 256 260 267 260 251 242 234 232 228 226 238 262 276 278 277 277 268 263 256 253 248
228 203 203 224 239 251 262 303 310 298 274 254 238 236 233 233 226 226 229 234 242 248 252 253 255 249 241 236 232 230 229 230 234 247 267 270 277 274 265 263 262 261 259
274 277 262 248 268 292 293 279 312 308 289 272 244 241 239 238 236 240 234 235 240 242 242 247 251 248 243 238 231 237 234 233 239 247 263 272 275 274 274 284 283 272 281
77 71 311 301 326 299 262 229 313 357 326 318 281 271 267 255 255 251 246 243 242 241 240 244 251 245 241 241 235 232 229 230 234 245 255 266 274 277 283 291 284 288 285
79 77 66 58 57 28 301 211 194 178 252 254 255 227 264 285 282 265 263 263 244 233 237 240 241 245 240 235 238 236 234 234 237 242 261 265 273 274 281 285 287 295 303
76 72 68 67 74 77 85 109 127 147 160 190 220 218 282 294 276 289 284 266 258 249 243 243 242 238 234 228 232 238 241 233 231 245 254 267 276 273 272 274 276 279 280
75 73 65 61 67 79 93 162 182 185 199 188 190 217 211 212 224 258 273 279 253 263 255 250 250 243 239 229 224 220 224 232 239 240 249 258 264 268 266 269 272 278 285
88 77 66 57 39 30 71 162 188 183 183 184 182 198 211 209 212 210 225 249 252 242 253 247 249 250 243 232 218 223 226 230 240 245 255 265 263 263 255 260 269 271 297
308 12 42 30 14 339 314 281 242 221 213 199 204 229 226 225 222 221 223 218 210 225 235 240 246 242 240 232 225 218 227 233 228 240 258 258 258 258 258 243 262 255 278
254 255 256 286 306 309 304 288 272 257 251 254 262 269 265 261 282 273 249 224 212 205 211 221 230 229 234 238 225 227 228 222 228 228 240 253 254 257 250 248 244 243 246
293 270 259 261 265 274 283 286 282 270 266 268 273 280 277 284 313 331 315 247 226 213 205 215 215 215 219 236 234 228 229 229 215 225 235 246 246 246 247 248 257 256 263
297 283 269 265 264 268 278 284 288 284 280 283 279 277 291 295 310 324 333 265 250 238 244 238 220 210 218 232 232 219 219 212 215 224 237 228 225 219 256 267 265 258 268
294 281 270 265 271 277 279 280 279 279 278 278 280 284 287 285 282 294 343 319 260 255 236 241 229 250 240 212 199 195 196 201 212 221 227 231 218 202 214 234 228 294 189
286 279 273 273 277 281 277 274 275 272 267 269 273 284 290 287 283 262 263 284 290 273 248 232 222 191 170 181 184 187 193 194 201 209 210 209 210 200 209 205 187 178 153
287 274 266 271 279 281 278 277 275 276 273 272 272 270 277 273 275 269 270 276 285 270 221 194 186 180 177 179 183 189 194 199 203 201 196 198 205 215 198 174 156 157 170
286 281 273 274 276 277 274 273 276 282 280 279 276 270 275 283 278 277 275 264 259 228 208 195 191 187 187 181 188 191 199 204 197 191 189 187 172 166 166 144 139 138 128
288 282 275 275 273 274 272 271 269 272 276 277 276 279 274 277 275 273 258 243 224 214 213 206 204 193 189 186 179 189 198 195 193 188 181 171 161 157 154 135 126 124 118
292 283 280 279 277 274 274 271 266 266 269 272 274 270 275 271 268 254 230 216 220 220 220 209 205 195 189 186 195 186 188 198 189 183 176 172 170 174 174 158 144 136 138
294 289 286 281 278 274 269 267 265 265 269 270 271 268 256 254 249 236 224 220 224 226 224 215 207 201 193 191 194 191 181 187 184 181 176 178 182 194 197 191 187 185 188
293 289 285 281 275 270 267 268 265 269 271 271 270 268 259 240 260 244 234 225 223 228 229 220 209 202 200 193 190 194 189 185 186 177 178 189 194 200 212 209 209 213 218
306 299 292 279 273 268 271 267 272 266 266 267 268 272 260 251 255 245 237 232 230 227 224 219 209 202 202 202 198 193 188 186 187 185 193 198 203 211 216 213 211 217 223
301 298 297 292 283 272 265 270 268 263 261 266 264 266 257 242 246 249 242 230 219 218 216 214 211 206 207 205 200 198 192 189 190 193 190 203 210 213 208 206 209 217 227
298 296 295 289 285 283 276 268 267 265 264 264 264 261 253 238 245 245 238 228 218 216 212 212 212 209 205 203 202 199 198 197 196 197 206 203 211 211 204 201 208 216 229
296 293 290 285 283 281 281 272 268 265 260 257 255 257 256 257 243 242 225 220 209 212 211 211 207 210 212 209 204 201 206 203 196 200 204 207 213 208 205 208 210 215 206
296 294 288 286 286 276 273 273 267 269 268 262 256 255 257 260 247 234 214 207 201 202 205 209 210 203 208 204 201 199 199 202 203 205 200 207 201 196 196 202 194 190 187